Regional Weather Roundup
Issued by NWS Spokane, WA

Home | Current Version | Previous Version | Text Only | Print | Product List | Glossary On
Versions: 1 2 3 4 5 6 7 8 9 10 11 12 13 14 15 16 17 18 19 20 21 22 23 24 25 26 27 28 29 30 31 32 33 34 35 36 37 38 39 40 41 42 43 44 45 46 47 48 49 50
000
NZUS01 KOTX 191710
RWROTX

Eastern Washington/Northern Idaho Roundup
National Weather Service, Spokane WA
1000 AM PDT SAT AUG 19 2017

Note: "fair" indicated few or no clouds below 12,000 feet with no
significant weather and/or obstructions to visibility.

...Northeast Washington and Northern Idaho Panhandle...

CITY           SKY/WX    TMP DP  RH WIND       PRES   REMARKS
Spokane Intl   PTSUNNY   66  45  46 S7        30.07S
Spokane Downto SUNNY     68  46  45 VRB5      30.07R
Coeur d Alene  SUNNY     68  47  46 S7        30.07S
Deer Park      SUNNY     67  44  43 SE6       30.06S
Sandpoint      MOSUNNY   68  43  40 S8        30.02F
Bonners Ferry  FAIR      68  46  45 SW9       30.01S

...Southeast Washington and southern Idaho Panhandle...

CITY           SKY/WX    TMP DP  RH WIND       PRES   REMARKS
Walla Walla    SUNNY     70  54  56 SW12      30.11S
Pullman/Moscow SUNNY     66  44  45 W16G22    30.12R
Lewiston       MOSUNNY   77  47  34 NW14G21   30.07S
Lowell           N/A     71  46  40 CALM      30.06F
Grangeville    FAIR      66  45  45 NE7       30.13R

...Columbia Basin...

CITY           SKY/WX    TMP DP  RH WIND       PRES   REMARKS
Ephrata        MOSUNNY   75  36  24 N10       30.08S
Moses Lake     MOSUNNY   76  40  27 N8        30.08S
Pasco          SUNNY     75  50  41 W6        30.09S
Richland       SUNNY     77  49  37 W3        30.08S
Hermiston      SUNNY     73  53  49 SW7       30.09F
Pendleton      SUNNY     71  50  47 W14       30.12S

...East Slopes Cascades...

CITY           SKY/WX    TMP DP  RH WIND       PRES   REMARKS
The Dalles     SUNNY     72  54  53 NW15G25   30.11S
Yakima         SUNNY     76  45  33 NW13      30.10S
Ellensburg     MOSUNNY   69  44  40 NW22G30   30.12S
Stampede Pass  PTSUNNY   52  46  80 VRB5      30.23R
Wenatchee      MOSUNNY   71  41  33 W15       30.09S
Omak           MOSUNNY   75  42  30 N13       30.08S
Sunnyside        N/A     69  51  53 CALM      30.09S

...Southern British Columbia...

CITY           SKY/WX    TMP DP  RH WIND       PRES   REMARKS
Penticton      PTSUNNY   70  48  46 N5        30.09S
Cranbrook      MOSUNNY   70  34  26 N17       29.98S
Osoyoos          N/A     73  46  38 N7          N/A
Creston          N/A     73  48  40 NW6         N/A

...Western Montana...

CITY           SKY/WX    TMP DP  RH WIND       PRES   REMARKS
Kalispell      SUNNY     75  40  28 SW9G21    29.96S
Libby            N/A     73  41  31 NW3       29.97S
Missoula       PTSUNNY   73  41  31 NW13      30.04S

...Neighboring Cities...

CITY           SKY/WX    TMP DP  RH WIND       PRES   REMARKS
Seattle        MOSUNNY   65  52  62 VRB5      30.22S
Portland       MOSUNNY   63  50  62 NW6       30.21F
Boise          SUNNY     72  43  35 NW8       30.05S
Great Falls    SUNNY     63  43  48 CALM      30.04F
Calgary        MOSUNNY   59  34  38 S10       30.03S



USA.gov is the U.S. government's official web portal to all federal, state and local government web resources and services.